"2009-09-09 00:00:00",1224289,9.55,30.25,6.823,1.461,19.78,109.2296,22.92,24.06,24.81,0,111.1,13.15,23.75,352.2
"2009-09-09 00:00:30",1224290,9.02,28.91,7.563,1.16,19.77,109.2077,22.86,24.05,25.2,0,111.1,13.15,23.69,350.9
"2009-09-09 00:01:00",1224291,10.67,33.03,1.935,1.118,19.73,109.2012,22.84,24,24.42,0,111.1,13.15,23.67,355.0
"2009-09-09 00:01:30",1224292,9.8,26.93,5.12,0.875,19.79,109.1824,22.79,23.97,24.66,0,111.1,13.15,23.63,348.9
"2009-09-09 00:02:00",1224293,8.69,29.17,1.061,0.599,19.71,109.1678,22.76,23.93,24.44,0,111.1,13.15,23.59,351.2
"2009-09-09 00:02:30",1224294,9.02,29.14,1.879,0.789,19.67,109.1535,22.72,23.89,24.88,0,111.1,13.15,23.55,351.1
"2009-09-09 00:03:00",1224295,9.2,28.73,1.681,0.889,19.7,109.1335,22.67,23.86,25.09,0,111.1,13.15,23.50,350.7
"2009-09-09 00:03:30",1224296,9.6,27.8,1.882,0.935,19.69,109.1141,22.62,23.81,25.55,0,111.1,13.15,23.45,349.8
"2009-09-09 00:04:00",1224297,11.01,30.08,1.045,1.511,19.68,109.101,22.59,23.77,26.2,0,111.1,13.15,23.42,352.1
"2009-09-09 00:04:30",1224298,11.13,30.87,2.718,0.991,19.67,109.0921,22.56,23.74,26.23,0,111.1,13.15,23.39,352.9
"2009-09-09 00:05:00",1224299,9.92,27.26,4.289,1.23,19.78,109.073,22.51,23.69,26.42,0,111.1,13.15,23.34,349.3
"2009-09-09 00:05:30",1224300,9.82,28,1.444,1.261,19.78,109.0725,22.51,23.66,26.59,0,111.1,13.15,23.34,350.0
"2009-09-09 00:06:00",1224301,10.91,30.3,0.874,1.082,19.8,109.0662,22.5,23.64,26.36,0,111.1,13.15,23.33,352.3
"2009-09-09 00:06:30",1224302,8.98,29.43,0.911,0.347,19.93,109.0531,22.46,23.59,26.12,0,111.1,13.15,23.29,351.4
"2009-09-09 00:07:00",1224303,9.39,30.13,1.05,0.934,19.92,109.0554,22.47,23.54,25.92,0,111.1,13.15,23.30,352.1
"2009-09-09 00:07:30",1224304,8.73,28.78,2.452,1.609,19.85,109.0573,22.47,23.53,26,0,111.1,13.15,23.30,350.8
"2009-09-09 00:08:00",1224305,8.53,29.38,1.871,0.824,19.86,109.0436,22.44,23.51,26.05,0,111.1,13.15,23.27,351.4
"2009-09-09 00:08:30",1224306,8.24,28.61,1.822,0.647,19.9,109.035,22.42,23.48,26.16,0,111.1,13.15,23.25,350.6
"2009-09-09 00:09:00",1224307,8.71,27.55,1.902,0.911,19.84,109.0296,22.4,23.46,26.74,0,111.1,13.15,23.23,349.5
"2009-09-09 00:09:30",1224308,8.73,30.18,2.949,0.961,19.94,109.0265,22.39,23.45,26.42,0,111.1,13.15,23.22,352.2
"2009-09-09 00:10:00",1224309,8.14,29.52,3.093,1.041,20.27,109.0269,22.4,23.44,25.36,0,111.1,13.15,23.23,351.5
"2009-09-09 00:10:30",1224310,8.1,29.94,1.983,0.687,20.17,109.0295,22.4,23.42,24.9,0,111.1,13.15,23.23,351.9
"2009-09-09 00:11:00",1224311,7.226,27.63,2.56,0.592,20.36,109.0353,22.42,23.41,24.91,0,111.1,13.15,23.25,349.6
"2009-09-09 00:11:30",1224312,7.816,29.54,1.516,0.66,19.99,109.0571,22.47,23.42,24.75,0,111.1,13.15,23.30,351.5
"2009-09-09 00:12:00",1224313,10.09,33.62,1.809,0.741,20.23,109.0661,22.5,23.43,24.61,0,111.1,13.15,23.33,355.6
"2009-09-09 00:12:30",1224314,8.6,30.57,2.145,0.693,20.28,109.0689,22.5,23.44,24,0,111.1,13.16,23.33,352.6
"2009-09-09 00:13:00",1224315,7.889,30.67,1.457,0.413,20.21,109.0907,22.56,23.45,24.04,0,111.1,13.16,23.39,352.7
"2009-09-09 00:13:30",1224316,8.42,30.24,3.127,1.184,20.26,109.1029,22.59,23.46,23.88,0,111.1,13.16,23.42,352.2
"2009-09-09 00:14:00",1224317,9.57,32.55,1.341,1.117,20.07,109.1037,22.59,23.49,24.56,0,111.1,13.16,23.42,354.5
"2009-09-09 00:14:30",1224318,10.37,33.27,1.226,0.639,20,109.1119,22.61,23.49,24.97,0,111.1,13.16,23.44,355.3
"2009-09-09 00:15:00",1224319,10.21,33.95,1.602,0.929,20.15,109.1203,22.63,23.52,24.66,0,111.1,13.16,23.47,356.0
"2009-09-09 00:15:30",1224320,9.96,33.84,1.411,0.646,19.99,109.1334,22.67,23.53,25.38,0,111.1,13.15,23.50,355.8
"2009-09-09 00:16:00",1224321,8.29,30.54,1.877,0.94,20.04,109.1349,22.67,23.55,25.39,0,111.1,13.16,23.50,352.5
"2009-09-09 00:16:30",1224322,9.89,32.6,2.281,1.073,20.22,109.1358,22.67,23.55,24.53,0,111.1,13.16,23.51,354.6
"2009-09-09 00:17:00",1224323,7.886,31.78,0.87,0.626,19.96,109.1369,22.68,23.56,25.12,0,111.1,13.16,23.51,353.8
"2009-09-09 00:17:30",1224324,9.84,34.3,1.761,1.181,20.24,109.1366,22.68,23.57,24.35,0,111.1,13.16,23.51,356.3
"2009-09-09 00:18:00",1224325,10.42,33.34,3.582,1.836,20.13,109.1363,22.68,23.58,24.4,0,111.1,13.16,23.51,355.3
"2009-09-09 00:18:30",1224326,8.37,23.77,4.724,1.334,19.81,109.1369,22.68,23.58,25.78,0,111.1,13.16,23.51,345.8
"2009-09-09 00:19:00",1224327,9.5,33.25,2.17,1.348,20.1,109.1363,22.68,23.59,25.18,0,111.1,13.16,23.51,355.2
"2009-09-09 00:19:30",1224328,10.71,36.46,0.446,0.081,20.19,109.1349,22.67,23.57,24.72,0,111.1,13.16,23.50,358.5
"2009-09-09 00:20:00",1224329,9.9,34.76,1.242,0.528,19.99,109.1307,22.66,23.59,25.62,0,111.1,13.16,23.49,356.8
"2009-09-09 00:20:30",1224330,10.36,35.35,0.928,0.441,20.09,109.1158,22.62,23.59,25.36,0,111.1,13.16,23.45,357.4
"2009-09-09 00:21:00",1224331,10.95,36.39,0.662,0.187,20.05,109.1102,22.61,23.57,25.63,0,111.1,13.16,23.44,358.4
"2009-09-09 00:21:30",1224332,10.37,35.37,0.567,0.197,20.07,109.104,22.59,23.58,25.59,0,111.1,13.16,23.42,357.4
"2009-09-09 00:22:00",1224333,10.61,35.11,0.717,0.332,20.15,109.1032,22.59,23.57,25.69,0,111.1,13.16,23.42,357.1
"2009-09-09 00:22:30",1224334,9.33,34.06,1.357,1.024,20,109.1032,22.59,23.56,26.11,0,111,13.16,23.42,356.1
"2009-09-09 00:23:00",1224335,7.636,28.25,3.006,0.57,19.93,109.1018,22.59,23.56,26.53,0,111.1,13.16,23.42,350.2
"2009-09-09 00:23:30",1224336,6.966,25.85,2.62,0.518,19.77,109.0956,22.57,23.55,27.65,0,111.1,13.16,23.40,347.9
"2009-09-09 00:24:00",1224337,7.819,32.58,1.583,0.655,19.98,109.081,22.53,23.54,27.09,0,111,13.16,23.36,354.6
"2009-09-09 00:24:30",1224338,6.693,30.91,1.404,0.603,19.78,109.0695,22.5,23.54,27.83,0,111,13.16,23.34,352.9
"2009-09-09 00:25:00",1224339,7.79,33.7,1.856,0.927,19.9,109.0697,22.51,23.53,27.87,0,111,13.17,23.34,355.7
"2009-09-09 00:25:30",1224340,8.97,36.1,0.849,0.216,20.1,109.0661,22.5,23.51,26.55,0,111,13.17,23.33,358.1
"2009-09-09 00:26:00",1224341,8.44,34.33,1.059,0.428,20,109.0471,22.45,23.5,26.99,0,111,13.17,23.28,356.3
"2009-09-09 00:26:30",1224342,8.14,35.19,1.591,0.568,19.99,109.0389,22.43,23.48,27.27,0,111,13.16,23.26,357.2
"2009-09-09 00:27:00",1224343,9.03,38.9,2.445,0.568,20.17,109.0385,22.42,23.47,26.75,0,111,13.16,23.26,0.9
"2009-09-09 00:27:30",1224344,8.93,39.08,1.104,0.189,20.03,109.0382,22.42,23.47,26.68,0,111,13.16,23.25,1.1
"2009-09-09 00:28:00",1224345,7.11,32.41,3.169,1.199,19.94,109.0397,22.43,23.45,27.36,0,111,13.16,23.26,354.4
"2009-09-09 00:28:30",1224346,6.618,30.68,2.215,0.875,19.97,109.0376,22.42,23.43,27.63,0,111,13.16,23.25,352.7
"2009-09-09 00:29:00",1224347,6.803,29.07,1.393,0.586,19.86,109.037,22.42,23.42,28.15,0,111,13.15,23.25,351.1
"2009-09-09 00:29:30",1224348,6.384,27.28,2.105,0.554,19.91,109.0309,22.41,23.42,28.08,0,111,13.15,23.24,349.3
"2009-09-09 00:30:00",1224349,6.581,28.96,1.241,0.649,19.86,109.0238,22.39,23.41,28.49,0,111,13.16,23.22,351.0
"2009-09-09 00:30:30",1224350,8.35,27.5,1.849,0.784,19.83,109.0134,22.36,23.4,28.87,0,111,13.16,23.19,349.5
"2009-09-09 00:31:00",1224351,7.142,26.68,2.038,0.486,19.79,109.0075,22.35,23.38,29.21,0,111,13.16,23.18,348.7
"2009-09-09 00:31:30",1224352,7.161,22.75,3.829,0.583,19.75,109.0063,22.34,23.4,29.42,0,111,13.16,23.17,344.8
"2009-09-09 00:32:00",1224353,6.61,25.38,2.779,0.456,19.67,109.0109,22.35,23.37,29.7,0,111,13.16,23.18,347.4
"2009-09-09 00:32:30",1224354,6.45,24.62,1.974,0.315,19.57,108.9995,22.32,23.36,30.17,0,111,13.16,23.15,346.6
"2009-09-09 00:33:00",1224355,6.203,21.52,2.472,0.358,19.58,108.9876,22.29,23.34,30.15,0,111,13.17,23.12,343.5
"2009-09-09 00:33:30",1224356,6.282,20.21,2.184,0.466,19.51,108.9845,22.29,23.34,30.29,0,111,13.17,23.12,342.2
"2009-09-09 00:34:00",1224357,6.165,24.57,3.083,0.622,19.59,108.99,22.3,23.33,30.61,0,111,13.17,23.13,346.6
"2009-09-09 00:34:30",1224358,5.904,27.75,1.705,0.411,19.63,108.9934,22.31,23.32,30.73,0,111,13.17,23.14,349.8
"2009-09-09 00:35:00",1224359,5.792,24.15,3.093,0.315,19.56,108.9882,22.3,23.31,30.87,0,111,13.16,23.13,346.1
"2009-09-09 00:35:30",1224360,5.916,24.63,2.701,0.499,19.59,108.9689,22.25,23.29,31.03,0,111,13.17,23.08,346.6
"2009-09-09 00:36:00",1224361,5.723,27.06,2.694,0.487,19.57,108.9618,22.23,23.27,31.2,0,111,13.16,23.06,349.1
"2009-09-09 00:36:30",1224362,5.698,24.58,3.431,0.451,19.57,108.9621,22.23,23.25,31.32,0,111,13.17,23.06,346.6
"2009-09-09 00:37:00",1224363,7.02,28.89,1.933,0.763,19.75,108.9478,22.19,23.24,30.8,0,111,13.17,23.02,350.9
"2009-09-09 00:37:30",1224364,7.433,27.68,2.375,0.797,19.71,108.929,22.14,23.22,31.14,0,111,13.17,22.97,349.7
"2009-09-09 00:38:00",1224365,6.433,26.05,2.418,0.706,19.67,108.927,22.14,23.2,31.36,0,111,13.17,22.97,348.0
"2009-09-09 00:38:30",1224366,6.677,26.67,2.471,0.635,19.68,108.9069,22.09,23.17,31.23,0,111,13.17,22.92,348.7
"2009-09-09 00:39:00",1224367,6.276,29.92,3.506,0.662,19.6,108.8956,22.06,23.15,31.24,0,111,13.17,22.89,351.9
"2009-09-09 00:39:30",1224368,6.183,25.34,4.244,0.729,19.56,108.89,22.04,23.12,31.38,0,111,13.17,22.87,347.3
"2009-09-09 00:40:00",1224369,6.405,26.49,6.971,1.092,19.58,108.8704,21.99,23.09,30.94,0,111,13.17,22.82,348.5
"2009-09-09 00:40:30",1224370,5.927,26.17,4.814,0.59,19.55,108.8646,21.98,23.07,31.8,0,111,13.17,22.81,348.2
"2009-09-09 00:41:00",1224371,6.001,26.63,2.613,0.354,19.61,108.8657,21.98,23.05,30.97,0,111,13.17,22.81,348.6
"2009-09-09 00:41:30",1224372,6.054,24.58,2.94,0.754,19.59,108.8501,21.94,23.02,31.6,0,111,13.17,22.77,346.6
"2009-09-09 00:42:00",1224373,6.098,24.1,1.879,0.604,19.61,108.8367,21.91,23,31.78,0,111,13.17,22.74,346.1
"2009-09-09 00:42:30",1224374,6.84,29.19,3.303,0.788,19.67,108.8361,21.91,22.98,31.53,0,111,13.17,22.73,351.2
"2009-09-09 00:43:00",1224375,6.79,29.77,3.273,0.84,19.69,108.8235,21.87,22.96,31.13,0,111,13.17,22.70,351.8
"2009-09-09 00:43:30",1224376,6.263,28.02,2.711,0.334,19.72,108.8047,21.82,22.94,30.82,0,111,13.17,22.65,350.0
"2009-09-09 00:44:00",1224377,7.077,28.84,2.775,1.044,19.8,108.8027,21.82,22.88,30.01,0,111,13.17,22.65,350.8
"2009-09-09 00:44:30",1224378,7.419,31.52,2.37,0.889,19.73,108.7855,21.78,22.87,30.73,0,111,13.17,22.60,353.5
"2009-09-09 00:45:00",1224379,7.117,30.14,2.39,0.786,19.81,108.769,21.73,22.84,30.23,0,111,13.17,22.56,352.1
"2009-09-09 00:45:30",1224380,8.69,34.19,2.661,0.853,19.8,108.7687,21.73,22.81,29.57,0,111,13.17,22.56,356.2
"2009-09-09 00:46:00",1224381,7.34,32.42,3.29,1.069,19.73,108.7513,21.69,22.79,30.06,0,111,13.17,22.52,354.4
"2009-09-09 00:46:30",1224382,7.388,32.13,1.937,1.043,19.79,108.7366,21.65,22.76,30,0,111,13.17,22.48,354.1
"2009-09-09 00:47:00",1224383,9.45,34.13,1.272,0.723,19.87,108.7352,21.65,22.75,29.73,0,111,13.17,22.47,356.1
"2009-09-09 00:47:30",1224384,8.27,33.04,2.579,1.417,19.83,108.735,21.65,22.73,30.16,0,111,13.17,22.47,355.0
"2009-09-09 00:48:00",1224385,6.905,31.58,2.717,1.384,19.74,108.722,21.61,22.7,31.11,0,111,13.17,22.44,353.6
"2009-09-09 00:48:30",1224386,7.883,31.57,1.848,0.749,19.85,108.7069,21.57,22.68,30.44,0,111,13.17,22.40,353.6
"2009-09-09 00:49:00",1224387,6.679,30.4,2.233,1.024,19.77,108.7015,21.56,22.66,31.08,0,111,13.17,22.39,352.4
"2009-09-09 00:49:30",1224388,8.88,35.19,2.573,1.148,19.88,108.7015,21.56,22.64,31.11,0,111,13.17,22.39,357.2
"2009-09-09 00:50:00",1224389,8.79,35.64,3.202,1.461,19.88,108.6998,21.56,22.63,31.34,0,111,13.18,22.38,357.6
"2009-09-09 00:50:30",1224390,7.843,33.47,2.871,1.285,19.86,108.6765,21.5,22.6,31.44,0,111,13.18,22.32,355.5
"2009-09-09 00:51:00",1224391,7.592,33.32,2.279,0.968,19.87,108.6678,21.47,22.58,31.39,0,111,13.18,22.30,355.3
"2009-09-09 00:51:30",1224392,9.15,36.1,2.93,0.563,19.91,108.6669,21.47,22.56,31.61,0,111,13.18,22.30,358.1
"2009-09-09 00:52:00",1224393,8.22,33.82,2.937,0.958,19.9,108.6535,21.44,22.53,31.84,0,111,13.18,22.26,355.8
"2009-09-09 00:52:30",1224394,8.8,33.05,4.385,1.294,19.95,108.6372,21.39,22.51,31.92,0,111,13.18,22.22,355.0
"2009-09-09 00:53:00",1224395,8.17,31.87,5.141,0.807,19.86,108.6344,21.39,22.49,32.22,0,111,13.18,22.21,353.9
"2009-09-09 00:53:30",1224396,7.359,32.75,2.403,1.031,19.84,108.6276,21.37,22.48,32.85,0,111,13.18,22.20,354.8
"2009-09-09 00:54:00",1224397,7.612,36.36,4.329,1.188,19.81,108.6063,21.32,22.44,32.74,0,111,13.18,22.14,358.4
"2009-09-09 00:54:30",1224398,8.58,35.98,3.027,0.812,19.86,108.6031,21.31,22.42,32.63,0,111,13.18,22.13,358.0
"2009-09-09 00:55:00",1224399,9.31,35.82,2.163,0.676,19.88,108.6012,21.3,22.39,32.57,0,111,13.18,22.13,357.8
"2009-09-09 00:55:30",1224400,9.46,36.33,2.333,0.668,19.89,108.5881,21.27,22.37,32.51,0,111,13.18,22.09,358.3
"2009-09-09 00:56:00",1224401,8.03,32.33,5.614,1.994,19.82,108.5748,21.23,22.35,32.91,0,111,13.18,22.06,354.3
"2009-09-09 00:56:30",1224402,10.28,38.35,3.866,1.195,19.92,108.5788,21.24,22.33,32.58,0,111,13.18,22.07,0.3
"2009-09-09 00:57:00",1224403,9.59,39.06,3.517,0.52,19.87,108.5779,21.24,22.29,32.7,0,111,13.19,22.07,1.1
"2009-09-09 00:57:30",1224404,8.63,38.6,4.352,1.138,19.85,108.5832,21.26,22.28,32.98,0,111,13.19,22.08,0.6
"2009-09-09 00:58:00",1224405,10,39.92,2.393,0.515,19.89,108.5758,21.24,22.26,33.09,0,111,13.19,22.06,1.9
"2009-09-09 00:58:30",1224406,9.27,37.19,3.216,1.428,19.82,108.5641,21.21,22.25,33.55,0,111,13.19,22.03,359.2
"2009-09-09 00:59:00",1224407,11.98,41.12,2.088,0.62,19.97,108.5603,21.2,22.25,33.1,0,111,13.19,22.02,3.1
"2009-09-09 00:59:30",1224408,10.23,42.62,4.283,0.718,19.89,108.5597,21.2,22.23,33.32,0,111,13.19,22.02,4.6
"2009-09-09 01:00:00",1224409,9,44.68,4.131,0.555,19.86,108.5606,21.2,22.21,33.42,0,111,13.19,22.02,6.7
"2009-09-09 01:00:30",1224410,9.8,42.85,4.11,0.718,19.89,108.5613,21.2,22.19,33.4,0,110.9,13.19,22.03,4.8
"2009-09-09 01:01:00",1224411,9.96,43.82,4.337,0.829,19.9,108.5578,21.19,22.17,33.4,0,111,13.19,22.02,5.8
"2009-09-09 01:01:30",1224412,10.65,41.86,7.295,0.863,19.91,108.5516,21.18,22.18,33.47,0,111,13.19,22.00,3.9
"2009-09-09 01:02:00",1224413,11.78,46.04,4.313,0.744,19.91,108.5454,21.16,22.16,33.52,0,111,13.18,21.98,8.0
"2009-09-09 01:02:30",1224414,11.58,45.16,3.455,1.101,19.91,108.5362,21.14,22.15,33.55,0,110.9,13.19,21.96,7.2
"2009-09-09 01:03:00",1224415,9.31,38.17,2.871,1.242,19.86,108.5345,21.13,22.15,33.91,0,110.9,13.19,21.96,0.2
"2009-09-09 01:03:30",1224416,12.14,47.35,3.67,0.636,19.96,108.5351,21.13,22.13,33.71,0,110.9,13.19,21.96,9.3
"2009-09-09 01:04:00",1224417,11.12,51.2,3.486,0.485,19.93,108.5358,21.13,22.12,33.84,0,110.9,13.19,21.96,13.2
"2009-09-09 01:04:30",1224418,10.79,48.73,3.887,0.731,19.94,108.5358,21.13,22.1,33.95,0,110.9,13.19,21.96,10.7
"2009-09-09 01:05:00",1224419,10.83,47.05,3.103,0.631,19.9,108.5358,21.13,22.1,34.13,0,110.9,13.19,21.96,9.0
"2009-09-09 01:05:30",1224420,12.05,49.7,3.874,0.563,19.89,108.5358,21.13,22.1,34.2,0,110.9,13.19,21.96,11.7
"2009-09-09 01:06:00",1224421,10.43,41.93,4.773,0.994,19.8,108.5355,21.13,22.09,34.73,0,111,13.19,21.96,3.9
"2009-09-09 01:06:30",1224422,11.83,49.99,3.2,1.023,19.88,108.5256,21.11,22.09,34.57,0,111,13.19,21.93,12.0
"2009-09-09 01:07:00",1224423,11.57,53.41,3.26,0.73,19.87,108.5116,21.07,22.08,34.48,0,110.9,13.19,21.90,15.4
"2009-09-09 01:07:30",1224424,11.44,50.2,4.383,0.591,19.83,108.5026,21.05,22.06,34.95,0,110.9,13.19,21.87,12.2
"2009-09-09 01:08:00",1224425,10.63,50.52,3.662,0.394,19.81,108.502,21.05,22.04,35.08,0,110.9,13.2,21.87,12.5
"2009-09-09 01:08:30",1224426,10.75,48.36,2.939,0.687,19.84,108.502,21.05,22.04,35.02,0,110.9,13.2,21.87,10.4
"2009-09-09 01:09:00",1224427,11.5,52.56,1.879,0.578,19.9,108.5,21.04,22.03,34.89,0,110.9,13.2,21.87,14.6
"2009-09-09 01:09:30",1224428,12.22,51.64,3.01,0.39,19.89,108.4846,21,22.02,34.92,0,110.9,13.2,21.83,13.6
"2009-09-09 01:10:00",1224429,12.65,54.9,2.785,0.338,19.92,108.4722,20.97,21.99,34.77,0,110.9,13.2,21.80,16.9
"2009-09-09 01:10:30",1224430,13.33,56.03,1.248,0.445,20.11,108.4686,20.96,21.99,33.95,0,110.9,13.2,21.79,18.0
"2009-09-09 01:11:00",1224431,13.22,55.67,1.108,0.315,20.02,108.4683,20.96,21.97,33.72,0,110.9,13.2,21.79,17.7
"2009-09-09 01:11:30",1224432,13.39,57.38,2.138,0.525,19.99,108.4683,20.96,21.97,34.25,0,110.9,13.2,21.79,19.4
"2009-09-09 01:12:00",1224433,12.75,56.59,1.922,0.716,19.92,108.4686,20.96,21.97,34.29,0,110.9,13.2,21.79,18.6
"2009-09-09 01:12:30",1224434,12.95,58.12,1.6,0.409,19.88,108.4697,20.96,21.96,34.54,0,110.9,13.2,21.79,20.1
"2009-09-09 01:13:00",1224435,13.36,58.37,2.317,0.286,19.99,108.4694,20.96,21.97,33.98,0,110.9,13.2,21.79,20.4
"2009-09-09 01:13:30",1224436,12.93,57.64,1.876,0.587,19.88,108.4694,20.96,21.96,34.23,0,110.9,13.2,21.79,19.6
"2009-09-09 01:14:00",1224437,13.82,59.76,0.711,0.114,20.03,108.4697,20.96,21.96,34.16,0,110.9,13.2,21.79,21.8
"2009-09-09 01:14:30",1224438,13.36,58.55,2.236,0.503,19.91,108.4745,20.98,21.97,34.74,0,110.9,13.2,21.80,20.5
"2009-09-09 01:15:00",1224439,13.56,59.24,3.454,0.625,19.92,108.4749,20.98,21.96,35.03,0,110.9,13.2,21.80,21.2
"2009-09-09 01:15:30",1224440,14.24,62.13,0,0.115,20.05,108.4772,20.98,21.96,34.7,0,110.9,13.2,21.81,24.1
"2009-09-09 01:16:00",1224441,13.95,62.14,0,0.115,20.12,108.4842,21,21.98,34.49,0,110.9,13.2,21.83,24.1
"2009-09-09 01:16:30",1224442,14.22,63.41,0.67,0.154,20.08,108.4962,21.03,21.98,34.61,0,110.9,13.2,21.86,25.4
"2009-09-09 01:17:00",1224443,14.33,63.9,0.05,0.113,20.09,108.507,21.06,21.99,34.67,0,110.9,13.2,21.89,25.9
"2009-09-09 01:17:30",1224444,14.33,63.61,0.485,0.165,20.06,108.5127,21.08,21.98,34.81,0,110.9,13.2,21.90,25.6
"2009-09-09 01:18:00",1224445,14.45,64.75,0.58,0.212,20.05,108.5139,21.08,21.99,34.9,0,110.9,13.2,21.90,26.8
"2009-09-09 01:18:30",1224446,14.59,64.79,0.492,0.116,20.07,108.5127,21.08,22,35.02,0,110.9,13.2,21.90,26.8
"2009-09-09 01:19:00",1224447,14.66,64.9,0.753,0.224,20.02,108.5142,21.08,22,35.25,0,110.9,13.2,21.90,26.9
"2009-09-09 01:19:30",1224448,14.79,65.87,0.766,0.236,20.03,108.5167,21.09,22.02,35.36,0,110.9,13.2,21.91,27.9
"2009-09-09 01:20:00",1224449,15.57,66.91,0.528,0.257,20,108.5206,21.1,22.02,35.78,0,110.9,13.2,21.92,28.9
"2009-09-09 01:20:30",1224450,16,67.05,0.903,0.156,19.96,108.5243,21.1,22.02,35.82,0,110.9,13.2,21.93,29.1
"2009-09-09 01:21:00",1224451,16.5,69.53,0.916,0.334,19.87,108.5258,21.11,22.03,36.25,0,110.9,13.2,21.93,31.5
"2009-09-09 01:21:30",1224452,16.17,70.21,1.644,0.409,19.81,108.5216,21.1,22.02,36.67,0,110.9,13.2,21.92,32.2
"2009-09-09 01:22:00",1224453,16.11,73.33,0.853,0.81,19.89,108.5027,21.05,22,36.2,0,110.9,13.2,21.87,35.3
"2009-09-09 01:22:30",1224454,15.83,71.75,2.371,0.887,19.75,108.4985,21.04,22.01,36.1,0,110.9,13.2,21.86,33.8
"2009-09-09 01:23:00",1224455,16.06,73.35,1.192,0.525,19.88,108.4992,21.04,21.99,36.15,0,110.9,13.2,21.87,35.3
"2009-09-09 01:23:30",1224456,16.09,72.58,3.331,0.965,19.82,108.475,20.98,21.96,36.04,0,110.9,13.2,21.80,34.6
"2009-09-09 01:24:00",1224457,15.79,73.35,2.876,0.897,19.77,108.4705,20.97,21.95,36.31,0,110.9,13.2,21.79,35.3
"2009-09-09 01:24:30",1224458,15.98,72.34,1.541,0.784,19.77,108.4548,20.93,21.93,36.63,0,110.9,13.21,21.75,34.3
"2009-09-09 01:25:00",1224459,15.58,73.89,2.577,0.314,19.82,108.4374,20.88,21.9,36.73,0,110.9,13.21,21.71,35.9
"2009-09-09 01:25:30",1224460,16.07,75.98,1.347,0.279,19.91,108.4323,20.87,21.89,37.32,0,110.9,13.21,21.69,38.0
"2009-09-09 01:26:00",1224461,15.68,77.88,3.389,0.508,19.89,108.4065,20.8,21.84,37.76,0,110.9,13.21,21.63,39.9
"2009-09-09 01:26:30",1224462,14.52,78.39,2.725,0.3,19.77,108.4025,20.79,21.82,37.91,0,110.9,13.21,21.62,40.4
"2009-09-09 01:27:00",1224463,14.63,80.5,3.482,0.711,19.76,108.3831,20.74,21.79,38.05,0,110.9,13.21,21.57,42.5
"2009-09-09 01:27:30",1224464,15.25,81.5,0.964,0.518,19.91,108.3699,20.71,21.74,38.07,0,110.9,13.21,21.53,43.5
"2009-09-09 01:28:00",1224465,14.19,80.9,1.968,0.646,19.79,108.3595,20.68,21.72,38.3,0,110.9,13.21,21.51,42.9
"2009-09-09 01:28:30",1224466,14.76,82.4,2.588,0.796,19.76,108.3367,20.62,21.69,38.37,0,110.9,13.21,21.45,44.4
"2009-09-09 01:29:00",1224467,14.42,81.1,1.533,0.337,19.76,108.3361,20.62,21.67,38.4,0,110.9,13.21,21.45,43.1
"2009-09-09 01:29:30",1224468,14.91,81.7,1.609,0.465,19.8,108.3167,20.57,21.64,38.26,0,110.9,13.21,21.40,43.7
"2009-09-09 01:30:00",1224469,15.16,82.6,1.121,0.292,19.81,108.3024,20.54,21.61,38.28,0,110.9,13.21,21.36,44.6
"2009-09-09 01:30:30",1224470,14.57,84.7,1.521,0.326,19.6,108.3024,20.54,21.58,38.59,0,110.9,13.21,21.36,46.7
"2009-09-09 01:31:00",1224471,14.31,82.5,1.186,0.351,19.63,108.2951,20.52,21.55,39,0,110.9,13.21,21.34,44.5
"2009-09-09 01:31:30",1224472,14.84,84.1,2.132,0.314,19.66,108.274,20.46,21.55,38.75,0,110.9,13.21,21.29,46.1
"2009-09-09 01:32:00",1224473,13.84,84.3,1.443,0.517,19.55,108.2686,20.45,21.51,39.18,0,110.8,13.21,21.27,46.3
"2009-09-09 01:32:30",1224474,14.24,83.7,1.349,0.378,19.66,108.2686,20.45,21.49,39.02,0,110.8,13.21,21.27,45.7
"2009-09-09 01:33:00",1224475,13.54,82.9,1.697,0.463,19.5,108.2602,20.43,21.47,39.27,0,110.8,13.21,21.25,44.9
"2009-09-09 01:33:30",1224476,13.52,83.9,1.5,0.339,19.61,108.2385,20.37,21.45,39.11,0,110.8,13.21,21.19,45.9
"2009-09-09 01:34:00",1224477,13.17,81.1,3.788,0.655,19.54,108.2349,20.36,21.42,39.46,0,110.8,13.21,21.19,43.1
"2009-09-09 01:34:30",1224478,12.78,81.9,3.776,0.788,19.62,108.2349,20.36,21.4,39.17,0,110.8,13.21,21.19,43.9
"2009-09-09 01:35:00",1224479,12.89,84.1,4.549,0.783,19.51,108.2248,20.34,21.38,39.39,0,110.8,13.21,21.16,46.1
"2009-09-09 01:35:30",1224480,13.53,85.2,2.122,0.65,19.6,108.2034,20.28,21.37,39.02,0,110.8,13.21,21.10,47.2
"2009-09-09 01:36:00",1224481,12.1,82.3,3.454,0.926,19.62,108.2011,20.28,21.35,39.33,0,110.8,13.21,21.10,44.3
"2009-09-09 01:36:30",1224482,11.81,80,4.299,0.701,19.51,108.2011,20.28,21.33,39.73,0,110.8,13.21,21.10,42.0
"2009-09-09 01:37:00",1224483,12.62,80.8,3.926,0.54,19.57,108.1986,20.27,21.31,39.4,0,110.8,13.21,21.09,42.8
"2009-09-09 01:37:30",1224484,12.68,83.8,3.533,0.511,19.59,108.1812,20.22,21.29,39.53,0,110.8,13.21,21.05,45.8
"2009-09-09 01:38:00",1224485,12.16,86.2,3.382,0.796,19.51,108.1748,20.21,21.28,39.54,0,110.8,13.21,21.03,48.2
"2009-09-09 01:38:30",1224486,11.68,87.3,3.147,0.375,19.46,108.1692,20.19,21.27,39.87,0,110.8,13.21,21.02,49.3
"2009-09-09 01:39:00",1224487,11.68,90.2,2.287,0.466,19.43,108.1717,20.2,21.26,39.93,0,110.8,13.21,21.02,52.2
"2009-09-09 01:39:30",1224488,10.16,86.2,5.222,1.012,19.37,108.1756,20.21,21.25,39.99,0,110.8,13.21,21.03,48.2
"2009-09-09 01:40:00",1224489,10.78,86.2,4.717,0.956,19.42,108.1674,20.19,21.23,40.2,0,110.8,13.21,21.01,48.2
"2009-09-09 01:40:30",1224490,11.12,86.9,3.904,0.545,19.47,108.1591,20.17,21.21,39.9,0,110.8,13.22,20.99,48.9
"2009-09-09 01:41:00",1224491,11.53,86.2,5.832,0.508,19.5,108.1565,20.16,21.19,39.92,0,110.8,13.22,20.98,48.2
"2009-09-09 01:41:30",1224492,12.54,90.4,2.009,0.425,19.58,108.158,20.16,21.19,39.14,0,110.8,13.22,20.99,52.4
"2009-09-09 01:42:00",1224493,12.58,86.4,4.062,0.629,19.49,108.1586,20.17,21.18,39.58,0,110.8,13.22,20.99,48.4
"2009-09-09 01:42:30",1224494,10.51,86,3.739,0.679,19.46,108.1601,20.17,21.16,39.97,0,110.8,13.22,20.99,48.0
"2009-09-09 01:43:00",1224495,11.65,88,6.135,0.648,19.5,108.1599,20.17,21.15,39.8,0,110.8,13.22,20.99,50.0
"2009-09-09 01:43:30",1224496,12.17,91.8,2.568,0.762,19.51,108.1538,20.15,21.15,39.74,0,110.8,13.22,20.98,53.8
"2009-09-09 01:44:00",1224497,11.9,87.9,3.84,1.147,19.44,108.1525,20.15,21.13,39.9,0,110.8,13.22,20.97,49.9
"2009-09-09 01:44:30",1224498,12.63,92.4,2.448,0.575,19.58,108.1439,20.13,21.12,39.49,0,110.8,13.23,20.95,54.4
"2009-09-09 01:45:00",1224499,11.73,94.3,4.646,0.327,19.52,108.1356,20.11,21.11,39.54,0,110.8,13.23,20.93,56.3
"2009-09-09 01:45:30",1224500,12.17,90.8,3.852,0.476,19.47,108.1355,20.11,21.11,39.82,0,110.8,13.23,20.93,52.8
"2009-09-09 01:46:00",1224501,11.48,91.5,3.851,0.647,19.43,108.1349,20.11,21.09,39.74,0,110.8,13.23,20.93,53.5
"2009-09-09 01:46:30",1224502,11.23,96.5,4.525,0.62,19.5,108.1361,20.11,21.11,39.65,0,110.8,13.23,20.93,58.5
"2009-09-09 01:47:00",1224503,10.92,95.9,3.388,0.389,19.4,108.1364,20.11,21.08,39.82,0,110.8,13.23,20.93,57.9
"2009-09-09 01:47:30",1224504,11.29,98.9,3.812,0.511,19.39,108.1364,20.11,21.07,39.83,0,110.8,13.23,20.93,60.9
"2009-09-09 01:48:00",1224505,11.27,100.2,6.772,0.503,19.32,108.1364,20.11,21.07,39.94,0,110.8,13.23,20.93,62.2
"2009-09-09 01:48:30",1224506,11.79,103.5,4.055,0.595,19.33,108.1299,20.09,21.08,40.02,0,110.8,13.23,20.92,65.5